User: anonymous   Login
Location: Unspecified
(0.0000°N, 0.0000°E)
Time: 23:16:04
(UTC+00:00)
Language:

STARLINK-31441 - Orbit

View from above orbital plane
View from above orbital plane
View from above satellite
View from above satellite

Ground track
Ground track

The orbit is defined by the following mean orbital elements,

1 60091U          26145.40860238 +.00000000 +00000-0 +10374-3 0 00006
2 60091  53.1586  40.6877 0001085  56.7855 303.3250 15.30188684    08
Epoch (UTC): 25 May 2026 09:48:23
Eccentricity: 0.0001085
inclination: 53.1586°
perigee height: 475 km
apogee height: 476 km
right ascension of ascending node: 40.6877°
argument of perigee: 56.7855°
revolutions per day: 15.30188684
mean anomaly at epoch: 303.3250°

The dashed part of the orbit path shows where the satellite is in the earth's shadow,  

DLR